DW5914 Weather Reports


time (UTC)temp
C
wind
direction
speed
KPH
gust
KPH
rain 1hr
cm
rain 24hr
cm
rain mn
cm
humidity
%
barometer
mb
20260504173100 17 47 4.8 8.0 0.00 0.00 0.00 66 1012.1
20260504171558 17 51 3.2 8.0 0.00 0.00 0.00 68 1012.2
20260504081502 16 135 1.6 4.8 0.00 0.00 0.00 57 1011.0
20260504044549 18 40 4.8 8.0 0.00 0.00 0.00 50 1011.0
20260504043053 18 57 4.8 11.3 0.00 0.00 0.00 50 1010.9
20260504041549 18 31 3.2 9.7 0.00 0.00 0.00 50 1010.9
20260504040107 18 55 4.8 8.0 0.00 0.00 0.00 50 1010.9
20260504034548 20 348 3.2 8.0 0.00 0.00 0.00 47 1010.8
20260504033050 19 51 3.2 9.7 0.00 0.00 0.00 46 1010.7
20260504031555 18 78 0.0 4.8 0.00 0.00 0.00 51 1010.6
20260504030045 18 40 0.0 4.8 0.00 0.00 0.00 53 1010.7
20260504024545 18 26 3.2 9.7 0.00 0.00 0.00 53 1010.7
20260504023044 18 360 6.4 12.9 0.00 0.00 0.00 53 1010.7
20260504021543 17 55 4.8 9.7 0.00 0.00 0.00 57 1010.9
20260504020043 18 56 3.2 9.7 0.00 0.00 0.00 57 1011.1
20260504014542 18 30 6.4 16.1 0.00 0.00 0.00 54 1011.1
20260504013042 18 63 6.4 16.1 0.00 0.00 0.00 57 1011.3
20260504011540 18 22 6.4 19.3 0.00 0.00 0.00 57 1011.5
20260504010036 18 360 8.0 16.1 0.00 0.00 0.00 57 1011.5
20260504004536 18 5 8.0 14.5 0.00 0.00 0.00 57 1011.6
20260504003034 18 360 6.4 14.5 0.00 0.00 0.00 59 1011.7
20260504001538 20 335 8.0 14.5 0.00 0.00 0.00 50 1011.8
20260504000032 21 51 6.4 12.9 0.00 0.00 0.00 46 1012.0
20260503234532 20 51 3.2 12.9 0.00 0.00 0.00 51 1012.1
20260503233034 20 355 4.8 12.9 0.00 0.00 0.00 52 1012.2
20260503231521 18 26 4.8 14.5 0.00 0.00 0.00 56 1012.5
20260503230019 19 51 9.7 19.3 0.00 0.00 0.00 53 1012.7
20260503224518 19 13 4.8 16.1 0.00 0.00 0.00 56 1012.9
20260503223015 18 315 4.8 16.1 0.00 0.00 0.00 58 1013.1
20260503221521 18 331 4.8 14.5 0.00 0.00 0.00 61 1013.3
20260503220009 17 49 8.0 16.1 0.00 0.00 0.00 64 1013.4
20260503214511 18 25 8.0 17.7 0.00 0.00 0.00 62 1013.7
20260503213005 18 22 8.0 17.7 0.00 0.00 0.00 62 1013.9
20260503211503 17 5 4.8 11.3 0.00 0.00 0.00 66 1014.0
20260503210002 17 18 6.4 12.9 0.00 0.00 0.00 66 1014.1
20260503204559 17 35 6.4 16.1 0.00 0.00 0.00 63 1014.4
20260503203058 17 329 4.8 17.7 0.00 0.00 0.00 64 1014.6
20260503201553 16 325 9.7 22.5 0.00 0.00 0.00 68 1014.9
20260503200056 16 42 9.7 20.9 0.00 0.00 0.00 70 1015.0
20260503194558 16 355 9.7 32.2 0.00 0.00 0.00 70 1015.2
20260503193049 16 287 8.0 16.1 0.00 0.00 0.00 71 1015.2
20260503191552 17 344 4.8 14.5 0.00 0.00 0.00 71 1015.3
20260503190048 16 330 6.4 11.3 0.00 0.00 0.00 72 1015.4
20260503184542 16 360 3.2 12.9 0.00 0.00 0.00 74 1015.6
20260503183041 16 329 4.8 14.5 0.00 0.00 0.00 74 1015.9
20260503181539 15 349 6.4 16.1 0.00 0.00 0.00 76 1016.0
20260503180036 15 10 3.2 16.1 0.00 0.00 0.00 78 1016.0
20260503174535 15 5 6.4 17.7 0.00 0.00 0.00 79 1016.2